Regional Weather Roundup
Issued by NWS Charleston, SC

Current Version | Previous Version | Graphics & Text | Print | Product List | Glossary On
Versions: 1 2 3 4 5 6 7 8 9 10 11 12 13 14 15 16 17 18 19 20 21 22 23 24 25 26 27 28 29 30 31 32 33 34 35 36 37 38 39 40 41 42 43 44 45 46 47 48 49 50
000 ASUS42 KCHS 270228 RWRCHS REGIONAL WEATHER ROUNDUP NATIONAL WEATHER SERVICE CHARLESTON SC 1000 PM EDT THU MAY 26 2016 NOTE: "FAIR" INDICATES FEW OR NO CLOUDS BELOW 12,000 FEET WITH NO SIGNIFICANT WEATHER AND/OR OBSTRUCTIONS TO VISIBILITY. NOT ALL STATIONS ARE QUALITY CONTROLLED. USE DATA WITH CAUTION... ESPECIALLY DEWPOINT OBSERVATIONS. SCZ027-030-031-034>040-042>050-270300- ...SOUTHEAST SOUTH CAROLINA... CITY SKY/WX TMP DP RH WIND PRES REMARKS N CHARLESTON CLEAR 73 63 70 S5 30.14R WATERFRONT PRK N/A 75 67 76 VRB3 30.12R MOUNT PLEASANT FAIR 70 64 83 CALM 30.15R JOHNS ISLAND FAIR 72 66 83 CALM 30.15R PINOPOLIS N/A 75 63 64 CALM 30.06R MONCKS CORNER FAIR 68 59 73 CALM 30.15R SUMMERVILLE FAIR 72 63 73 CALM 30.15R BEAUFORT MCAS CLEAR 75 66 73 VRB3 30.14R BEAUFORT ARPT FAIR 72 63 73 CALM 30.14R HILTON HEAD IS CLEAR 73 64 73 CALM 30.15R WALTERBORO CLEAR 72 61 68 CALM 30.15S ALLENDALE FAIR 73 57 56 S5 30.14R ...SOUTHERN MIDLANDS AND PEE DEE... CITY SKY/WX TMP DP RH WIND PRES REMARKS GEORGETOWN FAIR 66 63 88 CALM 30.16R KINGSTREE FAIR 70 55 60 SE5 30.14R ORANGEBURG CLEAR 75 57 53 S6 30.13R BARNWELL FAIR 79 61 53 S5 30.15R AIKEN FAIR 75 63 64 S8 30.16R MANNING FAIR 72 59 64 S3 30.14R COLUMBIA CLEAR 79 63 57 S8 30.10R SUMTER CLEAR 76 60 57 S8 30.10R FLORENCE CLEAR 75 59 57 S7 30.14R MYRTLE BEACH NOT AVBL N MYRTLE BEACH CLEAR 75 66 73 S7 30.15R $$ GAZ063-065-086>088-099>101-113>116-118-119-134>141-150-270300- ...SOUTHEAST GEORGIA... CITY SKY/WX TMP DP RH WIND PRES REMARKS SAVANNAH ARPT CLEAR 74 63 68 SE5 30.14R HUNTER AAF CLEAR 73 65 75 SE3 30.11R FORT STEWART CLEAR 68 61 77 CALM 30.12R STATESBORO CLEAR 74 61 64 SE3 30.14R SYLVANIA CLEAR 74 60 60 CALM 30.16R CLAXTON FAIR 69 60 73 CALM 30.15R ...CSRA...CENTRAL AND FAR SOUTHEAST GEORGIA... CITY SKY/WX TMP DP RH WIND PRES REMARKS THOMSON CLEAR 74 69 86 CALM 30.15S AUGUSTA-BUSH PTCLDY 77 64 64 SE7 30.11R AUGUSTA-DANIEL CLOUDY 81 63 54 VRB6 30.12R SWAINSBORO CLOUDY 79 59 50 S7 30.14R VIDALIA CLEAR 73 55 53 SE5 30.14R EASTMAN FAIR 78 63 59 SE6 30.13R HAZLEHURST FAIR 77 53 42 CALM 30.12R ALMA CLEAR 74 57 55 SE5 30.12R WAYCROSS CLEAR 73 62 68 SE3 30.13R JESUP FAIR 64 59 82 SE5 30.14R BAXLEY FAIR 75 55 50 SE3 30.13R BRUNSWICK CLEAR 72 66 83 CALM 30.15R SAINT SIMONS CLEAR 76 60 57 SE10 30.13R $$ SCZ027-028-034-036>038-045-046-048>050-GAZ119-141-270300- ...LAKE AND SUPPLEMENTAL COASTAL OBSERVATIONS... STATION/POSITION TIME TEMP WIND PRES WAVE SWELL AIR SEA DIR/SP/G HT/PER HT/PER/DIR (UTC) (F) (DEG/KT/KT) (MB) (FT/S) (FT/S/D) WINYAH BAY 0100 74 180/ 3 1020.0R LAKE MURRAY 0100 80 160/ 7/ 7 1017.9R ACE BASIN NERRS 0100 73 150/ 1 1020.0S FORT PULASKI 0200 1020.8R SAPELO ISLAND 0200 73 110/ 2 1020.0S $$ ANZ835-935-AMZ111-154-330-350-352-354-370-450-454-472-270300- ...C-MAN AND BUOY OBSERVATIONS... STATION/POSITION TIME TEMP WIND PRES WAVE SWELL AIR SEA DIR/SP/G HT/PER HT/PER/DIR (UTC) (F) (DEG/KT/KT) (MB) (FT/S) (FT/S/D) BUOY 41004 0150 78 77 130/ 10/ 14 1020.2R 2/ 8 2/ 8 BUOY 41008 0150 77 77 120/ 12/ 14 1020.2R 2/ 8 2/110/ 8 FOLLY BEACH CMAN 0200 76 150/ 6/ 7 1021.1R CAPERS NEARSHORE 0208 77 77 160/ 10/ 12 1020.6R FRIPP NEARSHORE 0208 77 78 150/ 12/ 14 1020.0R STATION/POSITION TIME TEMP WIND PRES WAVE SWELL AIR SEA DIR/SP/G HT/PER HT/PER/DIR (UTC) (F) (DEG/KT/KT) (MB) (FT/S) (FT/S/D) 5E ST. MARYS GA 0201 78 N/A 3/ 8 FRYING PAN BUOY 0200 78 76 140/ 10/ 12 1021.0R BUOY 41025 0150 76 71 170/ 10/ 12 1021.2R 2/ 8 2/140/ 8 CAPE LOOKOUT NC 0200 74 180/ 7/ 8 1021.3R BUOY 41002 0150 76 78 80/ 14/ 16 1020.7F 3/11 2/ 50/11 BUOY 41010 0120 76 79 70/ 14/ 16 1018.4R ST AUGUSTINE FL 0200 77 80 80/ 13/ 14 1020.7R $$

USA.gov is the U.S. government's official web portal to all federal, state and local government web resources and services.